Fairbanks, AK

10:43 AM AKDT on July 17, 2019 (GMT -0800)
Fairbanks International

Weather History for PAFA - January, 1975

Change the Weather History Date:

Tuesday, January 28, 1975

  Actual Average Record
Temperature  
Mean Temperature 23 °F -7 °F  
Max Temperature 28 °F 2 °F 42 °F (1945)
Min Temperature 18 °F -15 °F -60 °F (1933)
Degree Days  
Heating Degree Days 42 72  
Month to date heating degree days 2046  
Since 1 July heating degree days 8318  
Cooling Degree Days 0 0  
Month to date cooling degree days 0  
Year to date cooling degree days 0  
Moisture  
Dew Point 18 °F    
Average Humidity 79    
Maximum Humidity 88    
Minimum Humidity 74    
Precipitation  
Precipitation 0.03 in 0.02 in 0.51 in (1991)
Month to date precipitation 0.53  
Year to date precipitation 0.53  
Snow  
Snow 0.00 in 0.30 in 8.30 in (1991)
Month to date snowfall 9.3  
Since 1 July snowfall 47.2  
Snow Depth -    
Sea Level Pressure  
Sea Level Pressure 30.24 in    
Wind  
Wind Speed 3 mph (West)    
Max Wind Speed 10 mph    
Max Gust Speed -    
Visibility 5 miles    
Events Fog , Snow    
T = Trace of Precipitation, MM = Missing Value Source: NWS Daily Summary

Daily Weather History Graph

Daily Weather History Graph

Search for Another Location

Airport or City:

Astronomy

Jan. 28, 1975 Rise Set
Actual Time 8:50 AM AHST 3:19 PM AHST
Civil Twilight 7:49 AM AHST 4:20 PM AHST
Nautical Twilight 6:47 AM AHST 5:22 PM AHST
Astronomical Twilight 5:49 AM AHST 6:20 PM AHST
Moon 6:30 PM AHST (1/28) 8:16 AM AHST (1/28)
Length of Visible Light 8h 31m
Length of Day
6h 28m
Full, 97% of the Moon is Illuminated
Jan 28
Full
Feb 2
Last Quarter
Feb 10
New
Feb 18
First Quarter
Feb 25
Full

Hourly Weather History & Observations

Time (AHST) Temp. Windchill Dew Point Humidity Pressure Visibility Wind Dir Wind Speed Gust Speed Precip Events Conditions
12:00 AM 24.1 °F 19.7 °F 18.0 °F 77% 30.17 in 10.5 mi NNE 3.5 mph - N/A Snow Light Snow
1:00 AM 21.0 °F 16.2 °F 16.0 °F 81% 30.19 in 10.5 mi North 3.5 mph - N/A Snow Light Snow
2:00 AM 21.0 °F - 17.1 °F 85% 30.19 in 7.0 mi Calm Calm - N/A Snow Light Snow
3:00 AM 23.0 °F - 17.1 °F 78% 30.21 in 4.0 mi Calm Calm - N/A Snow Light Snow
4:00 AM 21.9 °F 17.2 °F 15.1 °F 75% 30.22 in 4.0 mi NE 3.5 mph - N/A Snow Light Snow
5:00 AM 24.1 °F 19.7 °F 17.1 °F 75% 30.22 in 6.0 mi NNE 3.5 mph - N/A Snow Light Snow
5:43 AM - - - N/A% 30.19 in 3.0 mi Calm Calm - N/A   Unknown
6:00 AM 23.0 °F 17.0 °F 16.0 °F 74% 30.22 in 3.0 mi NNE 4.6 mph - N/A Snow Light Snow
6:33 AM - - - N/A% 30.19 in 5.0 mi NNE 3.5 mph - N/A   Unknown
7:00 AM 21.0 °F 16.2 °F 15.1 °F 78% 30.24 in 5.0 mi North 3.5 mph - N/A Snow Light Snow
8:00 AM 19.9 °F - 14.0 °F 78% 30.25 in 7.0 mi Calm Calm - N/A Snow Light Snow
8:44 AM - - - N/A% 30.21 in 0.2 mi North 3.5 mph - N/A Fog Fog
9:00 AM 18.0 °F 11.1 °F 15.1 °F 88% 30.25 in 0.1 mi North 4.6 mph - N/A Fog Fog
10:00 AM 19.0 °F 13.9 °F 15.1 °F 85% 30.26 in 0.1 mi NNW 3.5 mph - N/A Fog Fog
10:22 AM - - - N/A% 30.22 in 0.2 mi Calm Calm - N/A Fog Fog
10:38 AM - - - N/A% 30.22 in 0.5 mi Calm Calm - N/A Fog Fog
10:45 AM - - - N/A% 0.00 in 7.0 mi North - - N/A   Ice Pellet Showers
11:00 AM 19.9 °F - 16.0 °F 85% 30.27 in 4.0 mi Calm Calm - N/A Fog , Snow Light Snow
12:00 PM 19.9 °F 13.4 °F 15.1 °F 81% 30.27 in 7.0 mi East 4.6 mph - N/A Snow Light Snow
1:00 PM 21.9 °F - 18.0 °F 85% 30.27 in 7.0 mi Calm Calm - N/A Snow Snow
2:00 PM 21.0 °F 14.6 °F 14.0 °F 74% 30.27 in 15.0 mi South 4.6 mph - N/A   Scattered Clouds
3:00 PM 19.0 °F - 14.0 °F 81% 30.25 in 15.0 mi Calm Calm - N/A   Scattered Clouds
4:00 PM 24.1 °F 19.7 °F 18.0 °F 77% 30.26 in 15.0 mi SSW 3.5 mph - N/A   Scattered Clouds
5:00 PM 25.0 °F 17.1 °F 19.9 °F 81% 30.27 in 10.0 mi South 6.9 mph - N/A Snow Light Snow
6:00 PM 25.0 °F 18.1 °F 19.9 °F 81% 30.27 in 7.0 mi SSW 5.8 mph - N/A Snow Light Snow
7:00 PM 27.0 °F 23.0 °F 19.9 °F 75% 30.26 in 3.0 mi SW 3.5 mph - N/A Snow Light Snow
8:00 PM 28.9 °F 20.4 °F 23.0 °F 78% 30.26 in 3.0 mi SW 9.2 mph - 0.01 in Snow Light Snow
8:02 PM - - - N/A% 30.22 in 2.0 mi SW 9.2 mph - N/A   Unknown
9:00 PM 28.9 °F 21.1 °F 23.0 °F 78% 30.27 in 3.0 mi SSW 8.1 mph - N/A Snow Light Snow
10:00 PM 28.9 °F 19.8 °F 23.0 °F 78% 30.26 in 3.0 mi SSW 10.4 mph - 0.01 in Snow Light Snow
11:00 PM 28.9 °F 21.1 °F 23.0 °F 78% 30.25 in 2.0 mi SW 8.1 mph - 0.01 in Snow Light Snow
11:30 PM - - - N/A% 30.21 in 4.0 mi SW 8.1 mph - N/A   Unknown